Columbia County, Pennsylvania, United States
Lat: 41.04N, Lon: 76.43W
Wx Zone: PAZ053
Local Info
Past Weather Observations for Tuesday, April 26, 2016

NOTE: This archive is for the closest National Weather Service station to Columbia County. Information may differ from the station used for current weather conditions.

Click here for Long-term Archive

Time Weather Temperature Dewpoint Humidity Pressure Winds Precip Visibility
23:53
Clear
45°F / 7°C 37°F / 3°C 76% 29.89 in
(1012 mb)
N 9.2 mph
(N 15 kph)
- 10SM
22:53
Clear
46°F / 8°C 37°F / 3°C 71% 29.89 in
(1012 mb)
N 12.7 mph
(N 20 kph)
- 10SM
21:53
Clear
50°F / 10°C 41°F / 5°C 71% 29.86 in
(1011 mb)
NE 9.2 mph
(NE 15 kph)
- 10SM
20:53
Clear
54°F / 12°C 43°F / 6°C 67% 29.8 in
(1009 mb)
NE 15 mph
(NE 24 kph)
- 10SM
19:53
Clear
55°F / 13°C 45°F / 7°C 67% 29.77 in
(1008 mb)
NE 10.4 mph
(NE 17 kph)
- 10SM
18:53
Partly Cloudy
61°F / 16°C 48°F / 9°C 63% 29.74 in
(1007 mb)
NE 17.3 mph
(NE 28 kph)
- 10SM
17:53
Mostly Cloudy
70°F / 21°C 54°F / 12°C 57% 29.68 in
(1005 mb)
N 10.4 mph
(N 17 kph)
- 10SM
16:53
Overcast
70°F / 21°C 55°F / 13°C 60% 29.68 in
(1005 mb)
NE 9.2 mph
(NE 15 kph)
- 10SM
15:53
Overcast
73°F / 23°C 55°F / 13°C 53% 29.65 in
(1004 mb)
NW 3.5 mph
(NW 6 kph)
0.00 in
(0.00 mm)
10SM
14:53
Mostly Cloudy
77°F / 25°C 57°F / 14°C 51% 29.62 in
(1003 mb)
NW 5.8 mph
(NW 9 kph)
0.02 in
(0.51 mm)
10SM
13:53
Mostly Cloudy
Light Rain
77°F / 25°C 54°F / 12°C 44% 29.62 in
(1003 mb)
NW 11.5 mph
(NW 19 kph)
0.00 in
(0.00 mm)
10SM
12:53
Mostly Cloudy
79°F / 26°C 54°F / 12°C 42% 29.62 in
(1003 mb)
WNW 9.2 mph
(WNW 15 kph)
- 10SM
11:53
Partly Cloudy
79°F / 26°C 54°F / 12°C 42% 29.65 in
(1004 mb)
W 9.2 mph
(W 15 kph)
- 10SM
10:53
Fair
N/A N/A N/A 29.65 in
(1004 mb)
Calm -
09:53
Clear
68°F / 20°C 57°F / 14°C 69% 29.65 in
(1004 mb)
S 8.1 mph
(S 13 kph)
- 10SM
08:53
Partly Cloudy
63°F / 17°C 55°F / 13°C 77% 29.68 in
(1005 mb)
Calm 0.00 in
(0.00 mm)
10SM
07:53
Mostly Cloudy
57°F / 14°C 54°F / 12°C 88% 29.68 in
(1005 mb)
Variable 3.5 mph
(Variable 6 kph)
0.00 in
(0.00 mm)
9SM
06:53
Mostly Cloudy
57°F / 14°C 54°F / 12°C 88% 29.74 in
(1007 mb)
NW 10.4 mph
(NW 17 kph)
- 7SM
05:53
Mostly Cloudy
Fog And Mist
54°F / 12°C 52°F / 11°C 94% 29.68 in
(1005 mb)
Calm - 3SM
05:46
Partly Cloudy
Fog And Mist
52°F / 11°C 52°F / 11°C 100% 29.68 in
(1005 mb)
Calm - 1 1/4SM
05:30
Partly Cloudy
Fog
52°F / 11°C 50°F / 10°C 94% 29.68 in
(1005 mb)
Calm - 1/4SM
05:22
Obscured
Fog
52°F / 11°C 50°F / 10°C 94% 29.68 in
(1005 mb)
Calm - 1/4SM
05:15
Obscured
Fog And Mist
52°F / 11°C 52°F / 11°C 100% 29.71 in
(1006 mb)
Calm - 1SM
05:09
Clear
Fog And Mist
54°F / 12°C 52°F / 11°C 94% 29.71 in
(1006 mb)
Calm - 1SM
05:05
Partly Cloudy
Fog
54°F / 12°C 52°F / 11°C 94% 29.71 in
(1006 mb)
Calm - 1/2SM
04:53
Partly Cloudy
Fog And Mist
52°F / 11°C 52°F / 11°C 100% 29.71 in
(1006 mb)
Calm - 3/4SM
04:50
Partly Cloudy
Fog And Mist
52°F / 11°C 52°F / 11°C 100% 29.71 in
(1006 mb)
Calm - 1 1/2SM
03:53
Partly Cloudy
Fog And Mist
55°F / 13°C 54°F / 12°C 94% 29.71 in
(1006 mb)
Variable 3.5 mph
(Variable 6 kph)
- 6SM
02:53
Overcast
55°F / 13°C 54°F / 12°C 94% 29.74 in
(1007 mb)
Calm - 8SM
01:53
Mostly Cloudy
55°F / 13°C 54°F / 12°C 94% 29.74 in
(1007 mb)
Calm - 7SM
00:53
Mostly Cloudy
57°F / 14°C 54°F / 12°C 88% 29.77 in
(1008 mb)
Calm 0.00 in
(0.00 mm)
7SM
Time Weather Temperature Dewpoint Humidity Pressure Winds Precip Visibility


Weather for websites

WeatherForYou.com, LLC is not responsible for any damages or problems caused by this service. Current weather conditions are obtained from the closest station including government and personal stations which may have varying degrees of accuracy. Weather forecasts are derived from the NOAA NDFD. Like all things, this site belongs to Jesus Christ... He just trusts us to maintain it. If you have any questions or comments email webmaster@weatherforyou.com

Copyright © 2016, WeatherForYou.com LLC. All rights reserved.